Weather Roundup
Issued by NWS Chicago, IL

Home | Current Version | Previous Version | Text Only | Print | Product List | Glossary Off
Versions: 1 2 3 4 5 6 7 8 9 10 11 12 13 14 15 16 17 18 19 20 21 22 23 24 25 26 27 28 29 30 31 32 33 34 35 36 37 38 39 40 41 42 43 44 45 46 47 48 49 50

201
NZUS59 KLOT 121708
HRRLOT

CHICAGO AREA WEATHER ROUNDUP
NATIONAL WEATHER SERVICE CHICAGO/ROMEOVILLE IL
1100 AM CST TUE DEC 12 2017

NOTE: "FAIR" INDICATES FEW OR NO CLOUDS BELOW 12,000 FEET WITH NO
SIGNIFICANT WEATHER AND/OR OBSTRUCTIONS TO VISIBILITY.

* THESE STATIONS ARE NOT UNDER NWS QUALITY CONTROL. THEY ALSO MAY NOT
  REPORT WEATHER SUCH AS PRECIPITATION OR FOG.

ILZ005-006-012>014-019>023-121800-
NORTHEAST ILLINOIS

CITY           SKY/WX    TMP DP  RH WIND       PRES   REMARKS
OHARE          MOSUNNY   20   7  57 NW17      30.09S WCI   5
MIDWAY         MOSUNNY   21   8  57 N18G25    30.10S WCI   6
AURORA         CLOUDY    18   9  68 NW13      30.13S WCI   5
LANSING*       PTSUNNY   22   9  58 NW15      30.09F WCI   8
WAUKEGAN       SUNNY     19   5  54 NW12G22   30.07F WCI   7
DUPAGE AIRPORT MOSUNNY   19   9  65 NW14G24   30.10F WCI   6
WHEELING       MOSUNNY   20   6  55 NW13      30.11S WCI   7
KANKAKEE*      MOSUNNY   22   7  52 NW15G24   30.12S WCI   9
MORRIS*        MOSUNNY   21   9  60 NW14G20   30.13F WCI   8
LEWIS AIRPORT* MOSUNNY   20  10  66 NW14G24   30.11F WCI   6
NORTHERLY ISL    N/A     20   8  60 NW13        N/A  WCI   7
$$

WIZ051-052-058>065-066-070>072-121800-
SOUTHEAST WISCONSIN

CITY           SKY/WX    TMP DP  RH WIND       PRES   REMARKS
MILWAUKEE      PTSUNNY   20   5  52 NW15      30.06F WCI   6
KENOSHA*       MOSUNNY   20   4  50 NW17G23   30.07F WCI   5
RACINE*        MOSUNNY   20   4  50 NW16G25   30.07F WCI   6
BURLINGTON     MOSUNNY   33  25  71 NW16      30.08F WCI  23
WAUKESHA       PTSUNNY   16   3  57 NW14      30.07F WCI   1
WEST BEND      CLOUDY    18   5  57 W16G22    30.04F WCI   3
$$

INZ001>003-010>013-019-020-121800-
NORTHWEST INDIANA

CITY           SKY/WX    TMP DP  RH WIND       PRES   REMARKS
GARY*          PTSUNNY   21   5  49 NW14G25   30.10S WCI   8
MICHIGAN CITY* NOT AVBL
RENSSELAER*    NOT AVBL
VALPARAISO     CLOUDY    21  11  65 W20G29    30.04F WCI   6
$$

LMZ740>746-121800-
SOUTHERN LAKE MICHIGAN

STATION/POSITION TIME  SKY/WX   TEMP WIND        PRES    VSBY
                                AIR  DIR/SP/G
                 (UTC)          (F)  (DEG/KT/KT) (MB)    (MI)
HARRISON CRIB    1640            19  290/ 21/ 25   N/A
BURNHAM HARBOR   1700            20  300/ 16/ 18   N/A
CALUMET HARBOR   1648            19  300/ 14/ 19 1018.3F
BURNS HARBOR     1640            22  300/ 22/ 29 1017.6R
MICHIGAN CITY    1640            22  290/ 27/ 33   N/A
$$

ABBREVIATIONS USED IN REMARKS
   TC - TEMPERATURE IN CELSIUS
  WCI - WIND CHILL INDEX
   HX - HEAT INDEX
  VSB - VISIBILITY
$$




USA.gov is the U.S. government's official web portal to all federal, state and local government web resources and services.